Regional Weather Roundup
Issued by NWS Cleveland, OH

Home | Current Version | Previous Version | Graphics & Text | Print | Product List | Glossary On
Versions: 1 2 3 4 5 6 7 8 9 10 11 12 13 14 15 16 17 18 19 20 21 22 23 24 25 26 27 28 29 30 31 32 33 34 35 36 37 38 39 40 41 42 43 44 45 46 47 48 49 50
000
ASUS41 KCLE 062002
RWRCLE
OHIO REGIONAL WEATHER ROUNDUP
NATIONAL WEATHER SERVICE CLEVELAND, OH
300 PM EST SAT FEB 06 2016

NOTE: "FAIR" INDICATES FEW OR NO CLOUDS BELOW 12,000 FEET WITH NO
SIGNIFICANT WEATHER AND/OR OBSTRUCTIONS TO VISIBILITY.

OHZ001>008-015>018-024>027-034-035-043-044-062100-
   NORTHWEST OHIO

CITY           SKY/WX    TMP DP  RH WIND       PRES   REMARKS
DEFIANCE       SUNNY     37  23  56 SW10      30.21F
FINDLAY        SUNNY     38  24  57 W13       30.21F
TOLEDO EXPRESS SUNNY     37  22  54 SW14G20   30.20F
TOLEDO EXEC    MOSUNNY   35  23  61 SW14      30.22F WCI  26
LIMA           SUNNY     37  23  56 W12       30.22F
$$

OHZ009>014-019>023-028>033-038-089-062100-
   NORTHEAST OHIO

CITY           SKY/WX    TMP DP  RH WIND       PRES   REMARKS
CLE-HOPKINS    SUNNY     39  22  50 S12       30.23F
CLE-LAKEFRONT  SUNNY     36  25  64 NW8       30.21F
CUY CO. ARPT   SUNNY     39  23  52 NW12      30.21F
LORAIN-ELYRIA  MOSUNNY   38  23  55 SW12      30.21F
ASHTABULA      SUNNY     37  18  46 W6        30.20F
AKRON-CANTON   MOSUNNY   38  18  44 SW13      30.20F
WOOSTER        SUNNY     38  21  50 SW8       30.20F
MANSFIELD      SUNNY     38  21  50 SW10      30.20F
YOUNGSTOWN     MOSUNNY   39  18  42 SW7       30.19F
$$

OHZ042-051>053-060>062-070>072-077>081-062100-
  SOUTHWEST OHIO

CITY           SKY/WX    TMP DP  RH WIND       PRES   REMARKS
CINC-COVINGTON MOSUNNY   46  22  38 SW10      30.25F
CINC-LUNKEN    MOSUNNY   46  24  42 W10       30.28F
HAMILTON       SUNNY     45  22  40 S6        30.26F
DAYTON         MOSUNNY   41  17  38 SW12      30.24F
WRIGHT-PAT AFB SUNNY     43  13  29 SW13      30.24F
DAYTON GENERAL SUNNY     42  16  34 SW12      30.23F
WILMINGTON     SUNNY     42  19  39 W12       30.24F
$$

OHZ036-037-039>041-045>050-054>059-063>069-073>076-082>088-062100-
  CENTRAL AND SOUTHEAST OHIO

CITY           SKY/WX    TMP DP  RH WIND       PRES   REMARKS
COLUMBUS       MOSUNNY   41  11  29 SW9       30.24F
OSU AIRPORT    SUNNY     41  17  38 SW9       30.23F
BOLTON FIELD   NOT AVBL
RICKENBACK AFB NOT AVBL
NEWARK         SUNNY     41  19  41 SW8       30.23F
MARION         SUNNY     39  20  46 SW13G20   30.22F
LANCASTER      SUNNY     42  16  34 SW12      30.25F
ZANESVILLE     SUNNY     44  12  27 SW9       30.23F
NEW PHILLY     SUNNY     41  16  36 SW7       30.24F
$$



USA.gov is the U.S. government's official web portal to all federal, state and local government web resources and services.